Total_Precipitation_Accumulation
0.47 0.13 0.10 0.09 0.13 0.21 0.26 0.30 0.31 0.42 0.14 0.02 0.00 0.00 0.00 0.00 0.00 0.00 0.00 0.00 0.01 0.02 0.03 0.05 0.07 0.08 0.08 0.10 0.22 0.24 0.17 0.12 0.11 0.06 0.06 0.04 0.03 0.02 0.02 0.02 0.01 0.02 0.02 0.03
0.87 0.31 0.18 0.24 0.40 0.21 0.25 0.27 0.22 0.09 0.02 0.01 0.00 0.00 0.00 0.00 0.00 0.00 0.00 0.00 0.01 0.03 0.04 0.05 0.07 0.10 0.13 0.14 0.19 0.16 0.12 0.11 0.09 0.07 0.05 0.04 0.04 0.02 0.02 0.03 0.03 0.03 0.06 0.07
0.49 0.18 0.19 0.49 0.37 0.06 0.05 0.04 0.01 0.01 0.02 0.01 0.01 0.02 0.03 0.02 0.01 0.01 0.01 0.01 0.01 0.02 0.04 0.06 0.09 0.11 0.15 0.15 0.14 0.17 0.15 0.09 0.07 0.07 0.06 0.04 0.03 0.03 0.04 0.10 0.06 0.05 0.06 0.06
0.17 0.11 0.22 0.44 0.13 0.01 0.01 0.01 0.00 0.00 0.01 0.01 0.03 0.04 0.03 0.03 0.03 0.02 0.02 0.02 0.04 0.05 0.08 0.10 0.12 0.15 0.15 0.13 0.14 0.14 0.15 0.12 0.11 0.10 0.07 0.09 0.06 0.05 0.05 0.08 0.10 0.10 0.10 0.10
0.05 0.06 0.18 0.07 0.00 0.01 0.03 0.05 0.02 0.01 0.01 0.02 0.04 0.01 0.02 0.05 0.08 0.09 0.09 0.10 0.22 0.16 0.18 0.22 0.19 0.27 0.24 0.18 0.16 0.16 0.15 0.15 0.16 0.16 0.12 0.10 0.10 0.07 0.08 0.08 0.07 0.08 0.11 0.11
0.02 0.02 0.07 0.09 0.00 0.00 0.02 0.19 0.04 0.01 0.00 0.01 0.03 0.06 0.11 0.12 0.12 0.12 0.15 0.14 0.22 0.31 0.19 0.33 0.39 0.36 0.54 0.38 0.29 0.30 0.28 0.25 0.19 0.23 0.18 0.14 0.11 0.10 0.10 0.11 0.10 0.08 0.07 0.06
0.00 0.02 0.02 0.00 0.00 0.00 0.08 0.19 0.06 0.02 0.02 0.02 0.08 0.15 0.18 0.15 0.16 0.20 0.20 0.23 0.28 0.36 0.35 0.42 0.69 0.50 0.55 0.96 0.76 0.66 0.58 0.49 0.44 0.36 0.33 0.24 0.20 0.17 0.15 0.13 0.13 0.13 0.14 0.11
0.03 0.06 0.05 0.00 0.01 0.05 0.14 0.11 0.07 0.05 0.03 0.03 0.07 0.12 0.14 0.17 0.19 0.21 0.22 0.22 0.37 0.47 0.52 0.50 0.69 0.89 0.71 0.84 1.40 1.25 1.02 0.97 0.88 0.76 0.64 0.52 0.42 0.37 0.28 0.22 0.19 0.16 0.16 0.16
0.04 0.08 0.10 0.03 0.05 0.08 0.04 0.05 0.10 0.07 0.06 0.05 0.07 0.10 0.13 0.15 0.14 0.15 0.20 0.24 0.28 0.45 0.54 0.53 0.48 0.73 0.88 1.03 1.16 1.30 1.38 1.34 1.32 1.17 1.03 0.89 0.74 0.61 0.50 0.44 0.37 0.33 0.30 0.31
0.08 0.06 0.04 0.04 0.03 0.04 0.04 0.07 0.09 0.08 0.08 0.08 0.10 0.12 0.15 0.16 0.16 0.16 0.17 0.20 0.22 0.23 0.35 0.45 0.51 0.45 0.56 0.69 0.77 0.88 0.90 0.99 1.13 1.15 1.08 1.00 0.91 0.87 0.78 0.70 0.66 0.64 0.54 0.48
0.07 0.08 0.05 0.03 0.05 0.06 0.07 0.08 0.08 0.10 0.11 0.11 0.12 0.14 0.14 0.15 0.15 0.16 0.17 0.18 0.17 0.17 0.17 0.23 0.30 0.38 0.43 0.45 0.43 0.43 0.48 0.56 0.57 0.60 0.65 0.66 0.61 0.55 0.49 0.53 0.47 0.42 0.42 0.39
0.09 0.06 0.05 0.06 0.06 0.04 0.05 0.08 0.09 0.08 0.09 0.10 0.10 0.10 0.07 0.06 0.05 0.04 0.04 0.04 0.04 0.04 0.05 0.07 0.09 0.12 0.13 0.16 0.21 0.26 0.30 0.33 0.39 0.43 0.44 0.46 0.49 0.50 0.45 0.40 0.31 0.27 0.25 0.22
0.04 0.03 0.01 0.04 0.04 0.05 0.05 0.08 0.07 0.06 0.06 0.06 0.03 0.01 0.00 0.00 0.00 0.00 0.00 0.00 0.00 0.00 0.00 0.00 0.00 0.01 0.01 0.00 0.00 0.01 0.02 0.04 0.07 0.11 0.16 0.20 0.23 0.25 0.32 0.35 0.32 0.32 0.31 0.29
0.04 0.03 0.05 0.07 0.07 0.06 0.04 0.04 0.03 0.03 0.02 0.00 0.00 0.00 0.00 0.00 0.00 0.00 0.00 0.00 0.00 0.00 0.00 0.00 0.00 0.01 0.02 0.01 0.00 0.00 0.00 0.00 0.00 0.00 0.00 0.00 0.01 0.02 0.03 0.04 0.06 0.07 0.07 0.08
0.04 0.02 0.03 0.02 0.01 0.00 0.00 0.00 0.00 0.00 0.00 0.00 0.00 0.00 0.00 0.00 0.00 0.00 0.00 0.00 0.00 0.00 0.00 0.00 0.00 0.00 0.00 0.01 0.00 0.00 0.00 0.00 0.00 0.00 0.00 0.00 0.00 0.00 0.00 0.00 0.00 0.01 0.00 0.00
0.02 0.00 0.00 0.00 0.00 0.00 0.00 0.00 0.00 0.00 0.00 0.00 0.00 0.00 0.00 0.00 0.00 0.00 0.00 0.00 0.00 0.00 0.00 0.00 0.00 0.00 0.00 0.00 0.00 0.00 0.00 0.00 0.00 0.01 0.00 0.00 0.00 0.00 0.00 0.00 0.00 0.00 0.00 0.00
0.00 0.00 0.00 0.00 0.00 0.00 0.00 0.00 0.00 0.00 0.00 0.00 0.00 0.00 0.00 0.00 0.00 0.00 0.00 0.00 0.00 0.00 0.00 0.00 0.00 0.00 0.00 0.00 0.00 0.00 0.00 0.00 0.00 0.00 0.00 0.00 0.00 0.00 0.00 0.00 0.00 0.00 0.00 0.00
0.00 0.00 0.00 0.00 0.00 0.00 0.00 0.00 0.00 0.00 0.00 0.00 0.00 0.00 0.00 0.00 0.00 0.00 0.00 0.00 0.00 0.00 0.00 0.00 0.00 0.00 0.00 0.00 0.00 0.00 0.00 0.00 0.00 0.00 0.00 0.00 0.00 0.00 0.00 0.00 0.00 0.00 0.00 0.00
0.00 0.00 0.00 0.00 0.00 0.00 0.00 0.00 0.00 0.00 0.00 0.00 0.00 0.00 0.00 0.00 0.00 0.00 0.00 0.00 0.00 0.00 0.00 0.00 0.00 0.00 0.00 0.00 0.00 0.00 0.00 0.00 0.00 0.00 0.00 0.00 0.00 0.00 0.00 0.00 0.00 0.00 0.00 0.00
0.00 0.00 0.00 0.00 0.00 0.00 0.00 0.00 0.00 0.00 0.00 0.00 0.00 0.00 0.00 0.00 0.00 0.00 0.00 0.00 0.00 0.00 0.00 0.00 0.00 0.00 0.00 0.00 0.00 0.00 0.00 0.00 0.00 0.00 0.00 0.00 0.01 0.01 0.00 0.00 0.00 0.01 0.01 0.01
0.00 0.00 0.00 0.00 0.00 0.00 0.00 0.00 0.00 0.00 0.00 0.00 0.00 0.00 0.00 0.00 0.00 0.00 0.00 0.01 0.00 0.00 0.00 0.00 0.00 0.00 0.00 0.00 0.00 0.00 0.00 0.00 0.00 0.01 0.00 0.01 0.01 0.01 0.01 0.00 0.00 0.00 0.00 0.01
0.00 0.00 0.00 0.00 0.00 0.00 0.00 0.00 0.00 0.00 0.00 0.00 0.00 0.00 0.00 0.00 0.00 0.00 0.00 0.00 0.00 0.00 0.00 0.00 0.00 0.00 0.00 0.00 0.00 0.00 0.00 0.00 0.00 0.00 0.00 0.00 0.01 0.01 0.01 0.01 0.00 0.00 0.01 0.01
0.00 0.00 0.00 0.00 0.00 0.00 0.00 0.00 0.00 0.00 0.00 0.00 0.00 0.00 0.00 0.00 0.00 0.00 0.01 0.00 0.00 0.00 0.00 0.00 0.00 0.00 0.00 0.01 0.01 0.00 0.00 0.00 0.00 0.00 0.01 0.00 0.01 0.01 0.00 0.01 0.00 0.00 0.00 0.00
0.00 0.00 0.00 0.00 0.00 0.00 0.00 0.00 0.00 0.00 0.00 0.00 0.00 0.00 0.00 0.00 0.01 0.01 0.00 0.00 0.00 0.00 0.00 0.00 0.00 0.00 0.00 0.01 0.01 0.01 0.01 0.01 0.01 0.01 0.01 0.00 0.01 0.01 0.01 0.01 0.01 0.00 0.00 0.01
0.00 0.00 0.00 0.00 0.00 0.00 0.00 0.00 0.00 0.00 0.00 0.00 0.00 0.00 0.00 0.00 0.00 0.00 0.00 0.00 0.00 0.00 0.01 0.02 0.00 0.00 0.01 0.01 0.01 0.01 0.01 0.01 0.01 0.00 0.01 0.01 0.01 0.01 0.01 0.01 0.01 0.01 0.00 0.00
0.00 0.00 0.00 0.00 0.00 0.00 0.00 0.00 0.00 0.00 0.00 0.00 0.00 0.01 0.01 0.02 0.01 0.00 0.00 0.01 0.00 0.00 0.01 0.02 0.02 0.01 0.01 0.01 0.01 0.01 0.01 0.01 0.01 0.02 0.01 0.01 0.01 0.01 0.01 0.01 0.01 0.00 0.01 0.01
0.00 0.00 0.00 0.00 0.00 0.00 0.00 0.00 0.00 0.00 0.00 0.00 0.00 0.00 0.01 0.01 0.01 0.00 0.01 0.01 0.02 0.02 0.02 0.02 0.02 0.03 0.02 0.01 0.01 0.01 0.01 0.01 0.01 0.01 0.00 0.01 0.01 0.01 0.01 0.01 0.01 0.01 0.01 0.01